Temp
13 13 13 13 12 14 13 12 12 10 10 9 10 9 9 10 10 9 10 9 9 9 9 9 9 9 9 9 9 9 9 9 9 9 9 9 9 9 9 9 9 9 9 8 8 8 8 8 8
13 13 13 13 14 15 13 12 11 10 11 11 10 10 10 10 9 9 9 9 9 9 9 9 9 9 9 9 9 9 9 9 9 9 9 9 9 9 9 9 9 9 9 9 9 8 8 8 8
13 13 13 12 14 14 13 12 10 11 11 9 10 10 10 9 9 9 9 9 9 9 9 9 9 9 9 9 9 9 9 9 9 9 9 9 9 9 9 9 9 9 9 9 9 9 8 8 8
13 13 12 14 13 12 12 11 10 10 10 10 10 10 9 9 9 9 9 9 9 9 9 9 9 9 9 9 9 9 9 9 9 9 9 9 9 9 9 9 9 8 9 9 9 8 8 8 8
13 13 13 14 13 12 11 10 10 10 9 9 9 10 9 9 9 9 9 8 9 9 9 9 9 9 9 9 9 9 9 9 9 9 9 9 9 9 9 9 9 9 8 8 9 9 8 8 8
13 13 14 14 12 11 10 10 10 10 11 10 9 9 9 8 8 8 8 8 8 8 9 9 9 9 9 9 9 9 9 9 9 9 9 9 9 9 9 9 9 9 9 9 8 8 8 8 8
13 13 13 13 12 12 11 11 10 10 11 10 9 8 8 8 8 8 8 8 9 9 9 9 9 9 9 9 9 9 9 9 9 9 9 9 9 9 9 9 9 9 8 8 8 8 8 8 8
13 12 13 13 13 11 11 12 11 9 11 10 9 10 9 8 7 8 8 8 8 9 9 9 9 9 9 9 9 9 9 9 9 9 9 9 9 9 9 9 9 9 9 8 8 8 8 8 8
13 13 14 12 12 11 11 10 11 11 10 9 10 9 8 8 8 7 8 9 9 9 9 9 9 9 9 9 9 9 9 9 9 9 9 9 9 9 9 9 8 9 8 8 8 8 8 8 8
13 14 12 12 12 12 10 10 11 10 9 11 10 9 8 8 9 9 9 9 9 9 9 10 10 9 9 9 9 9 9 9 9 10 9 9 9 8 8 8 8 8 8 8 8 8 8 8 8
13 13 13 13 12 11 12 11 11 10 10 11 10 9 8 8 9 9 9 9 9 9 9 10 10 10 9 9 9 10 9 9 9 9 9 9 9 8 8 8 8 8 8 8 8 8 8 8 8
13 14 13 13 13 12 11 11 10 10 10 11 9 8 9 9 9 9 9 8 9 9 10 10 10 10 10 10 9 10 9 9 9 10 9 9 9 8 8 8 8 8 8 8 9 8 9 9 8
12 13 13 13 13 12 12 11 11 11 10 11 10 10 10 9 10 9 9 9 9 9 10 10 10 10 10 9 10 9 9 9 9 9 9 9 9 9 8 8 9 9 9 9 9 9 9 9 9
12 11 11 12 12 13 12 12 10 11 10 10 10 10 10 10 10 10 10 10 9 10 10 10 10 10 10 10 9 9 9 9 9 9 9 9 9 9 9 9 9 9 9 9 9 10 9 9 9
11 12 11 11 12 13 11 11 11 11 11 11 10 10 10 10 10 10 10 10 10 10 10 10 10 10 10 10 10 9 9 9 10 10 9 9 9 10 9 10 9 10 10 10 10 10 10 9 9
13 12 12 13 13 13 12 11 12 11 12 11 8 10 10 10 10 10 10 11 10 10 10 10 10 10 10 10 10 10 9 9 9 9 9 10 10 10 10 10 10 10 11 10 10 10 10 10 9
15 15 13 13 13 13 12 12 12 11 11 10 9 8 10 10 10 10 10 11 11 10 10 10 10 10 10 10 10 10 10 9 9 9 9 10 10 10 10 10 10 10 11 11 10 10 10 10 10
16 16 14 13 13 12 13 12 12 11 10 10 10 9 9 10 10 10 10 10 11 10 10 10 10 10 10 10 10 10 9 9 9 9 9 10 10 10 11 10 11 11 11 11 11 10 10 10 10
15 15 15 13 14 13 13 12 12 12 11 11 10 10 9 9 9 9 10 10 10 10 10 11 10 10 10 10 10 10 10 9 9 9 9 10 10 10 11 11 11 11 11 11 11 11 10 10 10
16 16 16 13 13 13 13 13 12 11 11 11 11 10 10 10 10 9 10 10 10 10 10 10 11 10 10 10 10 10 10 10 10 9 10 11 10 10 11 11 11 11 10 11 10 10 10 10 10
18 17 16 15 13 13 13 13 12 12 11 11 11 11 11 11 11 10 10 10 10 10 10 10 10 11 11 10 10 10 10 10 10 10 10 11 10 11 11 11 11 11 11 11 10 10 10 10 10
18 16 15 14 14 17 14 18 13 12 12 11 11 11 11 11 10 11 10 10 10 10 10 10 11 11 11 11 11 11 11 11 10 10 10 10 10 11 11 11 11 11 11 11 10 10 10 11 11
16 17 15 15 16 16 15 17 14 13 12 12 12 11 11 11 11 11 10 11 10 10 10 10 11 11 11 11 11 11 11 11 10 10 10 10 10 11 11 11 12 11 11 11 10 11 11 11 11
16 15 15 15 17 19 16 17 17 14 14 13 12 12 12 11 11 11 11 10 10 10 10 11 11 11 12 11 11 11 11 11 11 10 10 10 10 11 11 11 11 11 11 11 11 11 11 11 11
15 18 20 21 21 20 16 17 16 15 14 14 13 12 12 12 11 12 12 11 11 11 11 11 11 11 11 11 11 11 11 11 11 10 10 9 8 10 10 11 11 11 11 11 11 11 11 11 11
17 18 20 20 21 21 16 18 16 14 15 14 13 12 12 12 12 12 12 12 11 11 11 11 11 11 11 11 11 11 11 11 11 11 10 10 10 10 11 11 11 10 11 10 11 11 11 11 11
18 18 18 20 19 20 19 16 14 15 14 14 12 11 13 13 13 12 12 12 12 12 11 11 11 11 11 11 11 11 11 11 11 11 11 11 11 11 11 11 11 10 10 10 11 11 11 11 11
17 18 19 19 20 20 20 18 17 14 15 14 13 12 13 14 13 13 13 13 12 12 12 11 11 11 11 11 11 11 11 11 11 11 11 11 10 11 11 11 11 11 10 10 11 11 11 11 11
18 18 19 19 20 21 22 18 15 15 15 15 15 14 14 14 14 13 13 13 13 12 12 12 12 12 11 11 11 10 10 10 11 11 11 10 10 10 10 10 10 10 11 10 11 10 10 10 10
18 19 19 20 20 20 20 17 14 14 15 14 14 14 14 14 14 14 13 13 13 13 13 13 12 12 12 11 11 11 10 10 10 10 10 10 10 10 10 11 10 10 10 11 10 10 10 10 10
Height
3182 3182 3182 3181 3188 3187 3187 3190 3189 3189 3190 3189 3188 3190 3191 3193 3193 3199 3198 3201 3204 3206 3208 3209 3210 3211 3212 3212 3212 3214 3214 3215 3216 3217 3217 3216 3215 3215 3215 3216 3216 3217 3217 3217 3217 3218 3218 3217 3217
3184 3185 3185 3184 3188 3186 3191 3191 3191 3191 3189 3189 3189 3190 3192 3193 3194 3196 3198 3201 3204 3208 3208 3210 3212 3212 3213 3213 3215 3215 3216 3217 3218 3219 3219 3220 3219 3217 3216 3217 3218 3219 3219 3219 3220 3220 3220 3219 3219
3187 3188 3187 3189 3189 3190 3192 3192 3191 3190 3190 3191 3191 3191 3192 3193 3194 3196 3199 3202 3206 3208 3210 3211 3213 3213 3214 3215 3216 3217 3218 3219 3219 3220 3221 3222 3222 3221 3219 3219 3219 3221 3221 3221 3222 3222 3222 3221 3221
3189 3190 3191 3192 3193 3194 3194 3193 3191 3191 3191 3191 3192 3192 3193 3193 3194 3198 3201 3204 3208 3210 3211 3212 3214 3214 3216 3217 3218 3219 3219 3220 3221 3222 3223 3223 3224 3224 3222 3221 3221 3222 3223 3224 3224 3224 3224 3223 3222
3190 3191 3194 3194 3196 3196 3195 3193 3194 3194 3192 3191 3192 3191 3192 3194 3196 3199 3202 3205 3207 3211 3213 3214 3215 3215 3217 3219 3220 3220 3222 3222 3223 3223 3224 3224 3225 3225 3224 3223 3223 3223 3224 3225 3226 3225 3225 3224 3224
3192 3193 3193 3196 3199 3198 3197 3195 3194 3194 3191 3191 3190 3190 3192 3195 3198 3201 3205 3204 3209 3212 3214 3217 3217 3217 3218 3220 3222 3222 3223 3224 3224 3224 3225 3225 3226 3227 3226 3226 3225 3225 3226 3226 3226 3225 3225 3225 3226
3194 3197 3198 3199 3201 3200 3199 3196 3196 3195 3193 3192 3191 3191 3194 3196 3199 3202 3206 3208 3211 3213 3215 3218 3219 3219 3220 3222 3223 3224 3225 3226 3226 3226 3227 3227 3227 3227 3227 3227 3227 3227 3227 3227 3227 3226 3226 3226 3226
3196 3199 3200 3201 3200 3201 3200 3198 3197 3196 3195 3194 3192 3193 3194 3198 3202 3204 3208 3210 3214 3216 3217 3219 3219 3222 3222 3224 3226 3227 3227 3228 3227 3227 3228 3228 3228 3228 3227 3227 3226 3226 3226 3227 3227 3227 3226 3226 3226
3198 3201 3201 3202 3202 3202 3200 3200 3198 3197 3196 3196 3195 3195 3197 3199 3202 3205 3209 3212 3215 3217 3218 3220 3220 3224 3225 3225 3227 3228 3228 3228 3228 3228 3229 3229 3229 3228 3228 3226 3225 3222 3224 3225 3224 3223 3225 3225 3226
3199 3202 3203 3202 3202 3203 3202 3202 3200 3200 3199 3199 3196 3195 3198 3202 3205 3208 3210 3214 3217 3219 3221 3221 3222 3225 3226 3227 3228 3228 3228 3228 3229 3229 3229 3229 3229 3229 3228 3226 3225 3224 3223 3222 3221 3223 3225 3225 3225
3201 3203 3202 3203 3203 3204 3203 3203 3203 3204 3204 3202 3199 3199 3201 3204 3207 3210 3214 3216 3219 3221 3222 3224 3224 3226 3227 3228 3229 3229 3229 3229 3230 3231 3230 3230 3230 3230 3227 3223 3224 3219 3219 3216 3218 3223 3224 3225 3225
3202 3202 3203 3204 3204 3204 3204 3205 3205 3206 3207 3205 3203 3205 3205 3208 3210 3214 3217 3220 3221 3222 3223 3223 3227 3228 3228 3230 3229 3230 3230 3231 3231 3232 3231 3231 3231 3230 3227 3225 3223 3220 3217 3215 3219 3223 3224 3226 3226
3203 3201 3202 3204 3205 3206 3206 3206 3206 3205 3206 3207 3207 3208 3210 3213 3215 3217 3219 3221 3222 3224 3225 3226 3227 3229 3230 3230 3230 3231 3231 3230 3232 3232 3232 3231 3231 3230 3228 3225 3224 3222 3220 3219 3220 3223 3225 3226 3227
3202 3202 3204 3205 3206 3207 3207 3206 3207 3207 3207 3208 3209 3211 3213 3215 3218 3220 3221 3222 3223 3224 3226 3226 3229 3230 3230 3231 3231 3231 3231 3232 3233 3232 3232 3232 3231 3230 3228 3226 3224 3223 3222 3221 3222 3224 3225 3227 3228
3200 3201 3204 3205 3206 3207 3207 3207 3209 3207 3208 3209 3209 3213 3216 3217 3219 3221 3222 3223 3224 3226 3228 3228 3230 3230 3231 3231 3231 3231 3231 3232 3232 3233 3232 3232 3231 3231 3230 3228 3225 3224 3222 3221 3222 3224 3226 3227 3229
3206 3205 3206 3206 3205 3206 3207 3209 3208 3207 3208 3210 3212 3212 3215 3219 3220 3221 3222 3223 3224 3226 3228 3229 3230 3231 3231 3231 3231 3231 3231 3232 3233 3233 3232 3232 3232 3230 3229 3229 3227 3225 3223 3222 3223 3225 3227 3229 3231
3205 3205 3206 3206 3205 3206 3208 3208 3207 3207 3209 3211 3212 3213 3214 3217 3219 3222 3224 3224 3226 3227 3228 3229 3230 3231 3232 3232 3231 3232 3232 3233 3233 3233 3233 3233 3231 3230 3230 3230 3228 3227 3225 3224 3225 3226 3229 3230 3232
3205 3204 3205 3205 3205 3206 3207 3207 3207 3208 3211 3212 3214 3215 3215 3217 3220 3222 3224 3226 3227 3228 3228 3229 3230 3231 3232 3232 3232 3232 3233 3233 3233 3233 3233 3233 3232 3231 3231 3230 3229 3228 3226 3227 3227 3229 3230 3232 3234
3203 3203 3203 3204 3204 3206 3207 3208 3207 3208 3211 3213 3215 3216 3218 3219 3221 3223 3224 3225 3227 3228 3229 3230 3230 3231 3231 3232 3232 3232 3232 3232 3232 3233 3233 3232 3231 3231 3231 3230 3230 3229 3228 3228 3229 3230 3232 3234 3235
3200 3202 3202 3202 3202 3206 3205 3207 3208 3208 3211 3213 3215 3217 3220 3221 3223 3222 3224 3225 3226 3228 3229 3230 3231 3231 3232 3232 3231 3232 3232 3232 3233 3233 3233 3232 3232 3231 3231 3231 3231 3231 3230 3230 3231 3232 3233 3234 3236
3200 3200 3201 3202 3202 3204 3205 3205 3206 3207 3210 3212 3214 3216 3219 3222 3223 3224 3224 3225 3226 3227 3228 3229 3229 3230 3231 3231 3232 3232 3232 3232 3233 3233 3233 3233 3233 3232 3231 3232 3232 3232 3231 3231 3232 3233 3234 3235 3237
3198 3198 3198 3199 3202 3201 3203 3199 3203 3205 3207 3209 3211 3213 3215 3218 3220 3223 3226 3225 3226 3228 3228 3228 3229 3230 3230 3231 3231 3231 3231 3232 3233 3233 3233 3233 3233 3233 3231 3232 3232 3232 3232 3232 3233 3234 3235 3237 3237
3200 3197 3197 3199 3201 3202 3202 3201 3202 3203 3205 3206 3208 3211 3213 3216 3219 3221 3223 3226 3228 3228 3227 3227 3227 3228 3230 3230 3230 3230 3230 3231 3232 3232 3232 3232 3232 3233 3232 3232 3233 3233 3233 3233 3234 3235 3236 3236 3238
3198 3198 3197 3199 3199 3193 3200 3201 3199 3202 3203 3204 3206 3208 3212 3214 3217 3219 3222 3223 3223 3225 3225 3226 3227 3228 3228 3229 3229 3229 3230 3231 3231 3231 3231 3232 3232 3232 3232 3232 3232 3233 3233 3233 3234 3235 3236 3236 3237
3200 3199 3192 3192 3190 3193 3199 3200 3200 3200 3199 3200 3202 3204 3208 3211 3214 3216 3218 3220 3222 3223 3224 3225 3226 3227 3228 3228 3228 3228 3229 3229 3229 3229 3230 3231 3232 3231 3231 3232 3233 3233 3232 3233 3234 3234 3235 3236 3238
3199 3199 3192 3192 3190 3191 3196 3197 3201 3198 3198 3198 3200 3203 3204 3207 3211 3213 3216 3218 3219 3221 3223 3225 3226 3227 3228 3228 3227 3227 3227 3228 3229 3229 3229 3230 3230 3231 3232 3233 3233 3232 3232 3231 3233 3234 3235 3237 3238
3198 3198 3197 3194 3196 3189 3193 3199 3199 3198 3197 3196 3197 3197 3201 3204 3206 3210 3213 3216 3217 3220 3222 3224 3225 3226 3227 3227 3227 3227 3227 3228 3228 3229 3229 3228 3229 3229 3230 3231 3231 3233 3232 3232 3233 3234 3234 3235 3237
3197 3197 3196 3195 3192 3190 3189 3196 3199 3200 3197 3195 3194 3195 3198 3202 3205 3208 3211 3214 3216 3218 3220 3222 3223 3225 3225 3226 3226 3226 3226 3226 3227 3228 3227 3227 3228 3228 3229 3230 3230 3231 3231 3233 3233 3234 3234 3235 3236
3196 3195 3195 3193 3193 3186 3183 3195 3201 3199 3198 3197 3197 3198 3200 3203 3205 3207 3210 3213 3215 3216 3218 3220 3222 3223 3224 3224 3225 3226 3226 3226 3225 3226 3226 3226 3225 3227 3228 3228 3228 3229 3229 3231 3232 3232 3233 3233 3233
3192 3192 3192 3191 3191 3192 3190 3197 3199 3199 3199 3199 3199 3200 3201 3203 3204 3205 3207 3208 3210 3212 3215 3217 3219 3221 3222 3222 3223 3223 3224 3224 3224 3224 3223 3224 3224 3225 3226 3226 3226 3227 3227 3228 3229 3230 3231 3230 3230
Wind_Speed
14 12 11 13 10 10 15 13 11 12 9 7 12 11 11 6 4 5 27 24 23 22 19 19 18 17 17 18 18 16 15 16 16 16 15 15 15 15 15 13 14 14 14 12 12 10 10 12 13
15 17 19 21 10 14 13 11 9 6 7 8 9 4 10 5 8 2 27 27 22 19 18 17 18 17 17 18 18 17 16 15 15 14 15 14 14 15 15 14 13 13 13 12 11 11 11 11 10
17 13 14 11 13 14 10 7 6 6 5 5 4 1 4 7 5 15 27 26 25 20 17 17 18 18 17 18 17 16 16 14 13 13 13 12 12 14 15 13 12 11 10 11 11 10 10 11 11
13 15 18 12 14 12 9 6 5 5 5 2 2 2 5 6 8 31 29 26 23 19 17 16 17 18 17 17 16 15 15 13 12 12 11 11 10 11 13 12 11 9 8 8 9 9 9 9 8
12 12 9 13 13 11 10 8 4 2 1 3 4 6 4 11 22 31 29 27 26 18 16 14 16 18 16 16 15 14 12 11 11 10 8 9 8 9 9 10 10 9 8 7 8 8 7 8 8
13 14 8 12 11 9 8 7 6 3 4 4 4 6 11 23 28 30 28 28 21 19 15 12 14 15 15 14 12 12 10 9 9 8 6 6 6 6 7 7 7 7 7 6 5 6 6 5 6
15 11 12 12 9 8 5 8 6 5 7 7 3 10 16 24 33 29 28 28 23 18 15 11 11 12 13 12 10 9 9 7 6 6 5 5 5 5 4 5 4 4 4 4 3 2 4 3 3
13 13 11 10 7 6 8 5 8 7 8 7 9 7 19 24 26 30 24 25 20 19 16 11 12 10 11 11 9 8 8 6 5 5 4 5 4 3 3 3 1 0 3 5 4 3 3 2 2
12 9 10 7 6 6 7 6 8 9 10 9 7 8 18 28 28 32 30 32 25 12 13 10 12 10 9 10 8 7 6 5 5 4 2 3 3 3 4 6 6 6 4 5 7 8 5 3 2
12 9 8 8 5 7 7 6 7 8 8 9 5 16 29 33 28 27 31 26 15 14 13 10 12 10 9 9 8 7 6 4 3 3 2 3 3 4 6 7 8 9 9 6 3 4 5 6 5
6 7 9 9 7 9 9 8 7 8 9 12 16 18 24 28 27 27 26 15 13 15 11 10 10 9 9 7 7 5 4 2 1 2 2 3 4 6 8 11 11 13 14 6 6 6 6 7 6
5 4 6 8 10 7 8 8 8 8 10 17 19 17 18 24 22 24 24 15 12 10 9 9 10 9 8 6 6 4 2 2 2 1 3 3 6 7 11 12 12 15 13 4 10 7 8 9 6
4 5 3 6 5 7 7 6 7 8 15 14 19 25 25 22 22 19 15 14 12 11 9 10 10 8 7 5 5 3 3 4 3 3 2 4 7 10 12 13 13 14 9 7 10 10 11 10 9
1 7 7 6 5 1 5 7 7 8 14 18 13 19 17 13 13 13 11 11 10 10 9 9 9 8 6 5 4 5 5 3 1 2 3 4 5 9 11 11 12 11 8 6 7 9 9 11 11
8 12 8 7 4 4 5 4 5 7 13 17 18 18 14 11 12 12 12 11 11 12 11 11 9 8 6 3 3 6 5 3 3 3 3 3 6 9 10 11 12 12 9 7 6 10 10 10 8
6 9 5 2 1 1 7 6 3 7 15 16 19 15 16 13 13 13 11 10 12 14 13 11 11 11 7 4 4 6 5 3 3 3 4 3 7 9 10 9 12 11 12 8 9 10 10 9 7
9 9 5 3 2 2 6 8 6 8 15 18 19 18 15 18 17 15 12 11 13 16 15 13 11 10 7 5 4 4 4 4 3 3 4 4 7 8 7 8 10 9 11 10 9 9 11 10 9
7 3 3 1 1 5 7 7 7 8 14 17 18 17 17 20 19 17 14 13 15 15 13 13 11 9 6 5 3 3 2 2 2 2 2 2 6 6 5 5 9 9 11 11 11 11 11 10 8
8 4 2 1 2 5 6 8 6 8 13 16 17 17 16 17 19 18 17 15 13 12 10 10 9 8 6 5 4 4 4 3 3 2 2 0 4 5 4 3 5 8 9 10 10 11 11 10 8
10 4 4 4 3 4 4 8 11 12 12 16 17 17 17 16 16 19 18 17 14 12 12 10 8 7 5 5 4 4 2 1 3 4 3 2 1 4 2 1 2 5 8 9 8 9 9 9 8
8 3 2 2 7 4 3 4 12 15 15 16 18 18 17 17 16 16 17 17 15 14 12 12 10 8 7 6 5 4 4 4 2 3 4 1 1 3 2 0 1 2 4 7 8 8 7 8 9
5 3 4 8 7 2 3 4 9 16 20 19 18 21 20 20 19 19 17 17 15 13 16 15 13 10 9 8 6 5 5 6 3 4 4 1 1 2 1 0 4 3 4 4 6 7 8 8 8
5 4 6 6 4 1 2 4 4 13 20 24 22 19 19 19 19 18 18 17 15 16 17 16 15 13 11 8 7 6 6 5 6 4 3 2 1 1 1 2 3 4 4 5 5 6 8 9 8
3 6 7 5 2 4 2 4 9 3 11 19 23 24 21 19 19 18 16 16 17 15 18 18 16 14 13 10 8 7 6 7 6 5 5 4 2 2 2 3 3 4 4 5 6 8 10 9 7
4 7 4 3 2 7 2 2 5 2 3 9 19 22 24 22 22 20 18 16 14 16 17 18 17 14 13 12 9 8 8 8 7 6 6 7 4 4 4 4 4 3 3 4 6 9 10 9 7
9 9 11 1 5 6 3 4 3 7 5 5 10 17 21 25 25 26 21 19 17 16 18 18 16 13 11 10 10 9 8 8 7 6 5 7 8 7 6 7 5 4 4 4 9 10 9 8 8
9 9 4 7 1 7 6 6 9 6 3 5 9 12 19 25 27 28 28 23 20 18 18 16 15 13 10 9 10 9 8 7 8 7 6 5 7 8 9 11 9 6 2 5 7 8 8 8 7
8 3 8 10 3 4 7 6 7 4 8 10 6 8 10 12 18 27 30 27 23 22 21 17 15 14 13 11 6 4 5 7 8 8 7 7 7 8 9 11 12 10 8 7 8 8 9 8 8
11 8 7 3 5 4 5 12 8 5 10 9 14 7 9 12 6 11 28 26 27 25 23 19 19 18 17 15 10 5 6 6 8 9 10 10 11 10 10 11 12 14 14 13 12 11 10 10 11
11 8 9 14 11 6 9 10 11 4 5 8 6 7 9 10 10 11 13 18 30 31 28 23 22 21 21 20 16 16 13 11 11 11 12 14 14 14 13 12 11 12 15 17 18 16 16 16 16
Wind_Direction
100 90 79 79 60 84 76 75 95 91 84 94 127 142 163 167 156 138 146 144 136 132 130 120 121 120 121 120 117 117 114 108 97 95 95 95 94 90 92 98 92 96 99 104 101 100 98 104 107
96 94 92 86 85 86 74 81 89 99 115 129 129 145 187 188 180 102 154 140 133 132 124 123 120 117 115 115 116 119 115 108 101 96 92 85 86 88 94 101 98 95 96 97 98 99 92 87 106
101 102 89 81 70 67 76 78 91 49 103 129 164 126 175 164 181 160 150 137 132 130 125 119 122 113 113 115 117 121 117 110 104 96 88 86 82 85 93 103 102 95 88 90 97 99 97 89 87
99 95 83 80 77 64 70 76 75 37 34 168 193 274 204 177 147 143 143 137 128 122 120 123 124 118 117 117 122 124 123 119 106 93 86 81 80 84 91 99 97 93 90 93 99 95 93 93 93
92 95 84 89 81 74 71 68 76 30 327 296 231 244 195 151 148 148 138 128 121 120 117 121 124 122 126 126 129 132 128 120 103 93 84 81 76 81 87 90 96 94 94 95 95 106 103 101 96
90 87 117 98 92 83 64 49 41 60 359 340 221 227 170 156 154 151 134 119 120 120 112 121 126 127 128 131 134 133 129 119 108 101 88 75 68 65 73 80 86 95 100 101 106 112 110 99 96
106 81 91 106 105 77 66 68 69 71 62 72 104 160 167 163 159 145 133 128 127 117 119 124 128 131 127 132 136 131 121 112 106 92 69 64 51 48 54 68 82 87 99 110 110 126 118 111 90
117 95 99 105 90 93 63 82 83 84 82 74 98 168 169 161 154 145 148 131 125 128 131 131 124 141 137 133 127 125 117 113 108 88 72 66 37 21 22 16 10 224 171 160 159 186 169 139 100
114 97 104 105 91 111 80 78 61 72 59 63 96 153 158 148 146 141 135 129 137 131 126 134 131 142 141 130 130 126 120 118 102 90 59 57 27 1 9 344 347 318 296 240 188 188 192 191 114
108 100 100 88 102 131 109 85 44 69 55 78 117 149 148 143 128 148 144 144 144 139 137 139 137 131 135 133 134 134 126 113 101 68 38 44 21 353 346 326 304 293 308 272 211 207 158 166 143
111 125 97 81 98 122 74 86 81 108 90 80 80 147 145 146 144 151 152 151 142 137 140 141 133 136 135 141 132 132 116 109 58 30 59 45 352 336 339 344 346 347 314 247 164 178 166 162 156
167 132 105 91 80 106 92 77 111 102 123 112 114 116 140 141 150 146 152 157 152 144 147 143 141 136 132 146 131 123 129 101 49 97 107 24 10 1 3 349 342 4 12 122 170 149 134 133 126
129 151 126 104 95 93 73 86 95 76 147 146 121 125 131 137 141 149 159 159 160 153 152 142 131 132 141 142 130 129 119 103 102 121 24 345 350 11 3 356 358 5 23 71 134 132 139 125 113
110 138 117 128 138 142 108 85 70 68 161 164 150 140 143 142 144 147 151 154 159 151 150 141 138 140 141 143 133 128 126 122 149 75 21 4 20 15 7 5 10 24 30 89 121 140 134 133 125
26 156 133 136 150 217 152 124 116 90 174 165 178 158 149 144 158 157 152 153 159 162 158 149 141 134 133 145 131 157 151 146 113 65 34 10 19 19 10 14 19 30 42 87 132 139 128 132 146
81 115 121 179 136 224 146 155 160 113 169 176 182 190 180 162 166 165 153 152 165 159 161 147 134 129 126 122 109 142 166 182 131 64 48 29 24 25 7 24 25 37 48 81 121 136 137 120 118
84 123 47 75 166 151 148 149 168 131 167 181 185 195 186 171 163 164 155 152 152 152 151 140 135 126 129 120 103 118 170 177 147 69 34 26 19 17 15 21 31 43 61 81 104 124 127 122 117
356 359 8 109 36 167 160 143 191 153 170 183 192 195 197 175 170 165 160 153 154 153 147 139 137 131 130 128 137 142 171 204 197 61 345 6 25 1 5 25 41 47 67 84 94 110 115 122 120
317 313 263 175 110 125 160 180 176 193 176 181 186 188 186 183 175 183 171 165 164 160 153 146 148 147 145 156 169 178 205 227 238 254 263 11 23 356 6 31 41 55 78 92 103 115 115 110 103
329 293 236 168 160 113 130 190 196 196 194 192 188 191 187 181 188 184 175 175 172 172 170 162 165 161 163 166 170 202 201 221 223 207 201 139 20 340 15 62 55 65 76 95 108 115 117 105 102
328 282 216 183 166 195 156 193 193 200 199 197 199 194 195 197 197 204 197 182 177 182 180 175 174 177 174 167 171 194 196 193 188 162 180 122 358 339 353 104 161 117 90 96 105 111 114 113 110
324 317 199 176 153 179 214 94 196 200 200 202 198 204 205 204 206 202 212 208 206 176 185 188 188 187 179 175 183 194 205 205 161 147 136 134 238 319 318 202 193 169 137 130 134 127 121 126 131
309 61 143 160 167 263 187 254 136 197 209 211 204 204 204 208 211 212 205 209 216 219 206 201 199 191 183 181 186 192 202 195 192 187 180 181 207 245 168 177 197 179 164 154 153 147 144 145 149
294 116 106 101 158 183 98 277 130 176 223 223 215 211 206 205 201 208 209 210 207 212 206 206 199 193 187 182 183 185 186 195 201 201 213 202 208 230 151 161 188 189 182 175 163 159 163 168 168
216 216 192 203 187 55 97 194 44 305 244 198 213 209 208 204 200 197 196 199 209 210 206 201 197 194 192 188 186 188 192 197 207 212 223 204 207 226 201 198 187 209 244 217 178 172 175 182 181
241 260 306 290 19 42 97 51 83 302 283 226 197 201 205 205 206 204 204 205 202 207 206 195 190 192 199 199 198 203 207 211 216 218 209 210 218 219 215 213 212 243 309 239 191 188 189 192 201
215 247 295 280 235 260 66 94 48 33 329 245 218 221 209 214 208 208 203 209 203 203 200 200 201 209 203 212 216 211 214 222 224 228 223 224 233 222 220 223 217 227 253 160 190 197 202 207 220
223 272 241 227 221 289 111 93 100 68 29 45 82 174 181 177 211 212 203 204 205 206 207 205 213 216 222 209 199 200 211 225 238 240 232 228 235 232 229 233 232 233 235 224 216 214 222 227 233
204 222 230 288 272 307 258 96 131 80 43 73 82 98 155 177 174 200 208 214 213 215 215 218 231 228 227 214 206 244 254 248 244 244 242 237 234 237 242 245 248 238 243 243 235 231 228 238 254
214 248 228 228 183 247 311 102 157 156 70 82 112 126 152 190 206 200 206 218 227 222 222 224 227 236 232 229 246 261 247 257 267 257 252 249 248 246 247 253 257 256 249 251 251 248 252 255 260